Weather History for Opa Locka, FL

Change the Weather History Date:

Thursday, March 27, 2014

  Actual Average Record
Temperature  
Mean Temperature 69 °F -  
Max Temperature 78 °F 80 °F 90 °F (1984)
Min Temperature 60 °F 64 °F 46 °F (1953)
Cooling Degree Days 4    
Growing Degree Days 19 (Base 50)    
Moisture  
Dew Point 54 °F    
Average Humidity 56    
Maximum Humidity 75    
Minimum Humidity 42    
Precipitation  
Precipitation 0.00 in - - ()
Sea Level Pressure  
Sea Level Pressure 30.24 in    
Wind  
Wind Speed 12 mph (East)    
Max Wind Speed 18 mph    
Max Gust Speed 25 mph    
Visibility 10 miles    
Events Rain    
Averages and records for this station are not official NWS values.
T = Trace of Precipitation, MM = Missing Value Source: NWS Daily Summary

Daily Weather History Graph

Daily Weather History Graph

Search for Another Location

Airport:

Trip Planner

Search our weather history database for the weather conditions in past years. The results will help you decide how hot, cold, wet, or windy it might be!

Date:

Astronomy

Mar. 27, 2014 Rise Set
Actual Time 7:17 AM EDT 7:35 PM EDT
Civil Twilight 6:54 AM EDT 7:58 PM EDT
Nautical Twilight 6:27 AM EDT 8:25 PM EDT
Astronomical Twilight 6:00 AM EDT 8:52 PM EDT
Moon 4:48 AM EDT 4:38 PM EDT
Length of Visible Light 13h 04m
Length of Day
12h 18m
Waning Crescent, 13% of the Moon is Illuminated
Mar 27
Waning Crescent
Mar 30
New
Apr 7
First Quarter
Apr 15
Full
Apr 22
Last Quarter

Hourly Weather History & Observations

Time (EDT) Temp. Dew Point Humidity Pressure Visibility Wind Dir Wind Speed Gust Speed Precip Events Conditions
12:53 AM 60.1 °F 52.0 °F 75% 30.26 in 10.0 mi North 6.9 mph - N/A   Scattered Clouds
1:53 AM 60.1 °F 52.0 °F 75% 30.23 in 10.0 mi North 6.9 mph - N/A   Mostly Cloudy
2:53 AM 64.0 °F 51.1 °F 63% 30.21 in 10.0 mi East 9.2 mph - N/A   Clear
3:53 AM 64.9 °F 50.0 °F 58% 30.19 in 10.0 mi East 10.4 mph - N/A   Scattered Clouds
4:53 AM 66.0 °F 50.0 °F 56% 30.19 in 10.0 mi East 10.4 mph - N/A   Clear
5:53 AM 66.0 °F 51.1 °F 59% 30.20 in 10.0 mi East 9.2 mph - N/A   Clear
6:53 AM 66.9 °F 52.0 °F 59% 30.21 in 10.0 mi ESE 12.7 mph - N/A   Mostly Cloudy
7:53 AM 66.9 °F 52.0 °F 59% 30.22 in 10.0 mi ESE 12.7 mph - N/A   Scattered Clouds
8:53 AM 70.0 °F 52.0 °F 53% 30.24 in 10.0 mi East 18.4 mph - N/A   Mostly Cloudy
9:53 AM 73.0 °F 52.0 °F 48% 30.26 in 10.0 mi ESE 18.4 mph 25.3 mph N/A   Partly Cloudy
10:53 AM 73.0 °F 53.1 °F 49% 30.29 in 10.0 mi East 18.4 mph - N/A   Scattered Clouds
11:53 AM 73.0 °F 54.0 °F 51% 30.29 in 10.0 mi ESE 18.4 mph - N/A   Mostly Cloudy
12:53 PM 78.1 °F 53.1 °F 42% 30.27 in 10.0 mi SE 17.3 mph 25.3 mph N/A   Mostly Cloudy
1:53 PM 75.9 °F 55.0 °F 48% 30.26 in 10.0 mi East 15.0 mph - N/A   Mostly Cloudy
2:53 PM 75.0 °F 55.9 °F 51% 30.27 in 10.0 mi East 15.0 mph - N/A   Overcast
3:53 PM 75.9 °F 55.0 °F 48% 30.25 in 10.0 mi East 11.5 mph 19.6 mph N/A   Scattered Clouds
4:53 PM 75.9 °F 55.9 °F 50% 30.25 in 10.0 mi East 13.8 mph - N/A   Mostly Cloudy
5:53 PM 75.0 °F 55.0 °F 50% 30.24 in 10.0 mi East 13.8 mph - N/A   Partly Cloudy
6:53 PM 73.9 °F 57.0 °F 55% 30.22 in 10.0 mi East 17.3 mph - N/A   Partly Cloudy
7:53 PM 73.0 °F 57.0 °F 57% 30.24 in 10.0 mi East 11.5 mph - N/A   Clear
8:53 PM 73.0 °F 57.0 °F 57% 30.24 in 10.0 mi East 8.1 mph - 0.00 in Rain Light Rain
9:53 PM 72.0 °F 57.9 °F 61% 30.25 in 10.0 mi ESE 10.4 mph - 0.00 in   Scattered Clouds
10:53 PM 72.0 °F 57.9 °F 61% 30.22 in 10.0 mi SE 18.4 mph - N/A   Clear
11:53 PM 72.0 °F 59.0 °F 64% 30.20 in 10.0 mi SE 18.4 mph - N/A   Clear